Location: Larkspur
(54.4391°N, 113.7691°W)
Time: 17:40:57
(UTC+00:00)

Oscar 19 - Pass Details

Date: 01 December 2023
Orbit: 771 x 789 km, 98.9° (Epoch: 03 March)

Event Time Altitude Azimuth Distance (km) Brightness Sun altitude
Rises 12:27:09 0° 17° (NNE) 3,269 14.0 -25.8°
Reaches altitude 10° 12:29:29 10° 19° (NNE) 2,340 13.3 -25.4°
Maximum altitude 12:34:38 74° 105° (ESE) 818 10.8 -24.7°
Drops below altitude 10° 12:39:48 10° 190° (S) 2,335 13.0 -23.9°
Sets 12:42:07 0° 193° (SSW) 3,262 13.8 -23.6°
